Retour au catalogue

KOSMOS-2583 SUBSATELLITE

ActifMilitairePO
NORAD 63330·PAYLOAD·🇷🇺 Russia
Ce nom de satellite n'a pas encore été confirmé par des sources officielles.

Lancé Feb 5, 2025 depuis Plesetsk Cosmodrome

Loading…

Prochains Passages (prochaines 24 heures)

TLE

FraisSource: Space-Track

Époque: Sep 14, 2026, 20:49 UTC

1 63330U 25026F   26257.86779236  .00002480  00000-0  20828-3 0  9997
2 63330  81.9964 341.4769 0012946 121.1125 239.1368 14.97902969 81471

Suivez KOSMOS-2583 SUBSATELLITE en temps réel avec AllMySat

Download on the App Store